Regional Weather Roundup
Issued by NWS

Home | Current Version | Previous Version | Graphics & Text | Print | Product List | Glossary On
Versions: 1 2 3 4 5 6 7 8 9 10 11 12 13 14 15 16 17 18 19 20 21 22 23 24 25 26 27 28 29 30 31 32 33 34 35 36 37 38 39 40 41 42 43 44 45 46 47 48 49 50
000
ASUS45 KTFX 240219
RWRMT
MONTANA HOURLY WEATHER ROUNDUP
NATIONAL WEATHER SERVICE GREAT FALLS MT
819 PM MDT THU OCT 23 2014

NOTE: "FAIR" INDICATES FEW OR NO CLOUDS BELOW 12000 FEET WITH NO
SIGNIFICANT WEATHER AND/OR OBSTRUCTIONS TO VISIBILITY.

* THESE STATIONS ARE NOT UNDER NWS QUALITY CONTROL. THEY DO NOT
   REPORT WEATHER SUCH AS PRECIPITATION OR FOG.

MTZ001>007-043-240300-
WEST OF THE DIVIDE
CITY           SKY/WX    TMP DP  RH WIND       PRES   REMARKS
KALISPELL      CLOUDY    50  45  83 S13       29.84R
MISSOULA       LGT RAIN  52  43  72 W8        29.95R
BUTTE          LGT RAIN  48  37  66 W12G22    29.98R
MULLAN PASS    LGT RAIN  36  36 100 SW8       29.92R WCI  30
* ESSEX        N/A       47  41  80 S12G17     N/A
* LINCOLN      N/A       50  42  74 W7G16      N/A
* POLSON       N/A       45  45 100 S2         N/A
* RONAN APT    CLOUDY    48  45  89 N/A        N/A
* SEELEY LAKE  N/A       49  39  69 S8G16      N/A
* THOMP F APT  CLOUDY    49  31  50 S13G21     N/A
$$

MTZ008-052>055-240300-
SOUTHWEST MONTANA
CITY           SKY/WX    TMP DP  RH WIND       PRES   REMARKS
BOZEMAN        CLOUDY    54  34  47 S7        29.92S
DILLON         CLOUDY    54  34  47 S16G24    29.94S
W YELLOWSTONE  CLOUDY    46  28  50 SW12      30.09R
* THREE FORKS  CLOUDY    59  39  48 S13G18     N/A
* BOULDER HILL N/A       50  32  50 S14G25     N/A
* MONIDA PASS  N/A       46  31  56 S13G24     N/A
* RAYNOLDS PAS N/A       48  34  59 S16G22     N/A
* WHITEHALL    N/A       59  31  35 W10G18     N/A
* WISE RIVER   N/A       46  39  77 NW6G15     N/A
$$

MTZ009>010-012-014-046-048-049-054-240300-
EAST SLOPES AND CENTRAL MONTANA
CITY           SKY/WX    TMP DP  RH WIND       PRES   REMARKS
CUT BANK       CLOUDY    48  39  71 SW20G28   29.78F
GREAT FALLS    CLOUDY    57  36  46 SW21G28   29.81R
HELENA         CLOUDY    63  36  37 SW20G28   29.88R
MALMSTROM AFB  CLOUDY    59  36  42 SW20G30   29.83R
* CONRAD       CLOUDY    48  45  89 N/A        N/A
* DEARBORN     N/A       60  37  43 S14G22     N/A
* EAST GLACIER N/A       42  40  93 W11G20     N/A
* MONARCH      N/A       53  23  31 SW12G20    N/A
* PENDROY      N/A       49  38  66 NW8        N/A
* ROGERS PASS  N/A       44  39  83 SE9G17     N/A
* SAINT MARY   N/A       42  40  93 SE3G10     N/A
* SWEET GRASS  N/A       51  39  64 SW26G31    N/A
* WHITE SULPH  N/A       53  29  40 SW8G17     N/A
$$

MTZ011-013-016-021-035-040-045-047-050-051-240300-
NORTH CENTRAL MONTANA
CITY           SKY/WX    TMP DP  RH WIND       PRES   REMARKS
HAVRE          CLOUDY    57  39  51 W6        29.76R
LEWISTOWN      CLOUDY    55  34  45 SW13      29.85F
* CHINOOK      CLOUDY    63  39  41 SW10      29.74S
* FORT BENTON  CLOUDY    57  37  47 SW7       29.80R
* CHESTER      N/A       54  38  55 W7G13      N/A
* DENTON       N/A       54  35  49 S10        N/A
* GEYSER       N/A       49  31  50 SW7        N/A
* JUDITH GAP   N/A       50  30  46 SE7        N/A
* LOMA         N/A       59  39  48 W7         N/A
$$

MTZ017>020-022>027-061-062-240300-
NORTHEAST MONTANA
CITY           SKY/WX    TMP DP  RH WIND       PRES   REMARKS
GLASGOW        CLOUDY    55  37  51 S3        29.76F
GLENDIVE       CLOUDY    50  36  59 NW9       29.84R
JORDAN         CLOUDY    45  36  71 NW5       29.81S
SIDNEY         CLOUDY    46  34  63 CALM      29.81S
WOLF POINT     CLOUDY    48  37  66 SW3       29.77S
* BEAVER HILL  N/A       54  32  43 S10        N/A
* CIRCLE       N/A       53  39  59 N/A        N/A
* LINDSAY DVD  N/A       50  36  59 W4         N/A
* NAVAJO       N/A       53  38  57 W9         N/A
$$

MTZ028>042-056>058-240300-
SOUTHCENTRAL AND SOUTHEAST MONTANA
CITY           SKY/WX    TMP DP  RH WIND       PRES   REMARKS
BAKER          CLOUDY    55  30  39 SW13      29.87S
BILLINGS       PTCLDY    61  27  27 W7        29.88S
LIVINGSTON     PTCLDY    61  30  31 SW23G31   29.89F
MILES CITY     MOCLDY    55  34  45 SW9       29.83F
* LAUREL APT   MOCLDY    59  25  27 N/A        N/A
* ROUNDUP APT  MOCLDY    52  36  55 N/A        N/A
* ALZADA       N/A       50  29  44 E4         N/A
* HYSHAM       N/A       60  31  33 N1         N/A
* LAME DEER    N/A       58  30  35 S2         N/A
* REED POINT   N/A       53  29  40 N/A        N/A
* ROSCOE HILL  N/A       59  21  23 SW17G25    N/A
$$

REGIONAL REPORTS...DAKOTAS
CITY           SKY/WX    TMP DP  RH WIND       PRES   REMARKS
WILLISTON      MOCLDY    54  36  51 S8        29.78S
DICKINSON      CLOUDY    48  34  59 S7        29.82S
BEACH          N/A       45  34  65 SW6       29.85S
CROSBY         CLEAR     48  37  66 SW9       29.75S
TIOGA          CLEAR     45  32  60 SW5       29.80S
BISMARCK       CLOUDY    55  30  39 W3        29.82R
GRAND FORKS    MOCLDY    46  37  71 S7        29.78S
FARGO          MOCLDY    57  39  51 S12       29.82F
BUFFALO SD     CLOUDY    54  30  40 W7        29.83S
RAPID CITY     PTCLDY    46  34  63 NW7       29.93R
$$

REGIONAL REPORTS...WYOMING/IDAHO/WASHINGTON
CITY           SKY/WX    TMP DP  RH WIND       PRES   REMARKS
GILLETTE       CLOUDY    48  30  50 S10       29.94S
SHERIDAN       CLOUDY    48  34  59 CALM      29.91S
CODY           CLOUDY    61  27  27 S6        29.98R
YELLOWSTONE LA MOCLDY    43  28  56 VRB3      30.17S
SALMON         CLOUDY    54  43  67 SE9       29.96R
MULLAN PASS    LGT RAIN  36  36 100 SW8       29.92S WCI  30
SAND POINT     CLOUDY    50  46  86 S5        29.86R
SPOKANE        CLOUDY    50  46  86 SW17G25   29.89R
$$

REGIONAL REPORTS...ALBERTA
CITY           SKY/WX    TMP DP  RH WIND       PRES   REMARKS
CALGARY        FAIR      45  30  56 NW6       29.58R
LETHBRIDGE     MOCLDY    52  39  61 SW20      29.66S
MEDICINE HAT   CLOUDY    57  41  55 S13       29.65F
EDMONTON       FAIR      36  21  54 VRB2      29.54R
WATERTON GATE  N/A       45  41  86 SW5        N/A
CARDSTON       N/A       46  41  83 SW10       N/A
MILK RIVER     N/A       50  39  66 S16G23     N/A
$$

REGIONAL REPORTS...SASKATCHEWAN
CITY           SKY/WX    TMP DP  RH WIND       PRES   REMARKS
SWIFT CURRENT  FAIR      52  41  66 SW17      29.65F
REGINA         CLOUDY    52  41  66 S9        29.67S
VAL MARIE      N/A       46  39  77 SW8        N/A
ASSINIBOIA     N/A       52  39  61 SW13       N/A
CORONACH       N/A       52  39  61 S3         N/A

$$




USA.gov is the U.S. government's official web portal to all federal, state and local government web resources and services.